K6OUA-11 Weather Reports


time (UTC)temp
C
wind
direction
speed
KPH
gust
KPH
rain 1hr
cm
rain 24hr
cm
rain mn
cm
humidity
%
barometer
mb
20180118200157 25 272 9.7 9.7 0.00 0.00 0.00 36 1012.4
20180118195858 25 242 8.0 11.3 0.00 0.00 0.00 37 1012.6
20180118195556 25 249 9.7 11.3 0.00 0.00 0.00 37 1012.7
20180118195253 25 245 9.7 12.9 0.00 0.00 0.00 36 1012.7
20180118194954 25 232 6.4 12.9 0.00 0.00 0.00 35 1012.6
20180118194653 25 249 6.4 9.7 0.00 0.00 0.00 35 1012.7
20180118194351 25 263 6.4 9.7 0.00 0.00 0.00 36 1012.6
20180118194051 26 267 8.0 9.7 0.00 0.00 0.00 35 1012.7
20180118193748 26 252 6.4 9.7 0.00 0.00 0.00 35 1012.8
20180118193448 26 261 6.4 11.3 0.00 0.00 0.00 35 1012.7
20180118192848 26 251 3.2 8.0 0.00 0.00 0.00 34 1012.8
20180118192544 26 236 1.6 11.3 0.00 0.00 0.00 34 1012.8
20180118192242 26 236 4.8 9.7 0.00 0.00 0.00 34 1012.9
20180118191946 26 250 6.4 6.4 0.00 0.00 0.00 33 1012.9
20180118191641 26 249 6.4 9.7 0.00 0.00 0.00 34 1012.9
20180118191340 26 247 6.4 8.0 0.00 0.00 0.00 34 1012.9
20180118191039 26 261 6.4 8.0 0.00 0.00 0.00 33 1012.9
20180118190738 26 238 3.2 6.4 0.00 0.00 0.00 33 1013.0
20180118190136 26 261 8.0 8.0 0.00 0.00 0.00 33 1013.0
20180118185836 26 245 3.2 8.0 0.00 0.00 0.00 33 1013.0
20180118185535 26 267 4.8 9.7 0.00 0.00 0.00 33 1013.0
20180118185233 26 267 4.8 9.7 0.00 0.00 0.00 33 1013.1
20180118184631 26 256 3.2 11.3 0.00 0.00 0.00 34 1013.2
20180118184330 26 245 4.8 8.0 0.00 0.00 0.00 33 1013.1
20180118183730 26 256 4.8 9.7 0.00 0.00 0.00 33 1013.2
20180118183426 27 247 3.2 6.4 0.00 0.00 0.00 33 1013.3
20180118183127 27 247 3.2 3.2 0.00 0.00 0.00 34 1013.2
20180118182824 27 231 0.0 8.0 0.00 0.00 0.00 34 1013.3
20180118182222 27 238 3.2 6.4 0.00 0.00 0.00 34 1013.2
20180118181921 27 249 4.8 6.4 0.00 0.00 0.00 35 1013.1
20180118181620 27 225 1.6 9.7 0.00 0.00 0.00 35 1013.1
20180118181318 27 249 3.2 4.8 0.00 0.00 0.00 36 1013.1
20180118181018 27 270 4.8 4.8 0.00 0.00 0.00 36 1013.1
20180118180716 27 225 0.0 1.6 0.00 0.00 0.00 37 1013.2
20180118180414 27 270 1.6 1.6 0.00 0.00 0.00 37 1013.3
20180118180113 26 261 1.6 1.6 0.00 0.00 0.00 37 1013.2
20180118175815 26 249 0.0 1.6 0.00 0.00 0.00 37 1013.2
20180118174909 25 225 0.0 1.6 0.00 0.00 0.00 39 1013.1
20180118174609 25 225 0.0 0.0 0.00 0.00 0.00 40 1013.3
20180118174309 25 213 0.0 0.0 0.00 0.00 0.00 40 1013.0
20180118174006 25 238 0.0 0.0 0.00 0.00 0.00 41 1013.0
20180118173705 24 225 0.0 1.6 0.00 0.00 0.00 41 1013.0
20180118173405 24 225 0.0 0.0 0.00 0.00 0.00 42 1013.0
20180118173103 23 225 0.0 0.0 0.00 0.00 0.00 42 1013.1
20180118172801 23 225 0.0 0.0 0.00 0.00 0.00 43 1013.1
20180118172503 23 225 0.0 0.0 0.00 0.00 0.00 44 1013.2
20180118172200 22 225 0.0 0.0 0.00 0.00 0.00 44 1013.1
20180118171901 22 225 0.0 0.0 0.00 0.00 0.00 44 1013.0
20180118171558 22 225 0.0 1.6 0.00 0.00 0.00 45 1013.0
20180118171257 21 225 0.0 0.0 0.00 0.00 0.00 45 1012.9
20180118170654 20 225 0.0 1.6 0.00 0.00 0.00 47 1013.0
20180118170354 20 220 0.0 1.6 0.00 0.00 0.00 46 1012.9
20180118170056 20 225 0.0 1.6 0.00 0.00 0.00 47 1012.8
20180118165753 19 148 1.6 3.2 0.00 0.00 0.00 47 1012.6
20180118165454 18 202 0.0 3.2 0.00 0.00 0.00 48 1012.8
20180118165149 18 180 0.0 3.2 0.00 0.00 0.00 49 1012.8
20180118164245 17 128 3.2 6.4 0.00 0.00 0.00 49 1012.7
20180118163943 17 114 4.8 6.4 0.00 0.00 0.00 49 1012.7
20180118163642 17 123 6.4 6.4 0.00 0.00 0.00 49 1012.6
20180118163342 16 112 8.0 9.7 0.00 0.00 0.00 49 1012.5
20180118163041 16 90 8.0 9.7 0.00 0.00 0.00 49 1012.5
20180118162740 16 101 6.4 8.0 0.00 0.00 0.00 49 1012.5
20180118162438 16 87 6.4 9.7 0.00 0.00 0.00 49 1012.4
20180118162138 16 90 8.0 9.7 0.00 0.00 0.00 49 1012.5
20180118161536 16 103 8.0 8.0 0.00 0.00 0.00 50 1012.7
20180118161233 15 117 4.8 4.8 0.00 0.00 0.00 51 1012.6
20180118160933 15 110 4.8 4.8 0.00 0.00 0.00 50 1012.6
20180118160633 15 126 3.2 4.8 0.00 0.00 0.00 50 1012.6
20180118160331 15 114 3.2 6.4 0.00 0.00 0.00 51 1012.6
20180118160028 15 108 4.8 6.4 0.00 0.00 0.00 51 1012.7
20180118155729 15 101 4.8 4.8 0.00 0.00 0.00 51 1012.6
20180118155429 15 108 4.8 6.4 0.00 0.00 0.00 51 1012.6
20180118155125 14 96 4.8 6.4 0.00 0.00 0.00 51 1012.5
20180118154524 14 123 4.8 8.0 0.00 0.00 0.00 52 1012.5
20180118154223 14 103 3.2 6.4 0.00 0.00 0.00 52 1012.4
20180118153922 14 87 6.4 6.4 0.00 0.00 0.00 52 1012.4
20180118153620 13 126 4.8 6.4 0.00 0.00 0.00 52 1012.5
20180118153320 13 126 3.2 9.7 0.00 0.00 0.00 52 1012.3
20180118153019 13 90 6.4 9.7 0.00 0.00 0.00 52 1012.4
20180118152718 13 87 4.8 8.0 0.00 0.00 0.00 52 1012.3
20180118152415 13 90 6.4 8.0 0.00 0.00 0.00 52 1012.3
20180118152117 13 92 4.8 8.0 0.00 0.00 0.00 52 1012.3
20180118151813 13 90 6.4 8.0 0.00 0.00 0.00 52 1012.4
20180118151513 13 101 3.2 9.7 0.00 0.00 0.00 52 1012.4
20180118151212 13 94 6.4 8.0 0.00 0.00 0.00 52 1012.3
20180118150910 13 90 6.4 11.3 0.00 0.00 0.00 52 1012.3
20180118150608 13 78 6.4 11.3 0.00 0.00 0.00 52 1012.4
20180118150307 13 83 9.7 11.3 0.00 0.00 0.00 53 1012.3
20180118150007 13 87 6.4 9.7 0.00 0.00 0.00 53 1012.3
20180118145705 13 94 8.0 9.7 0.00 0.00 0.00 53 1012.2
20180118145103 13 92 4.8 6.4 0.00 0.00 0.00 52 1012.3
20180118144803 13 92 4.8 8.0 0.00 0.00 0.00 52 1012.4
20180118144501 12 90 6.4 6.4 0.00 0.00 0.00 53 1012.4
20180118144200 12 96 6.4 6.4 0.00 0.00 0.00 53 1012.4
20180118143900 12 92 4.8 6.4 0.00 0.00 0.00 53 1012.4
20180118143559 12 85 4.8 6.4 0.00 0.00 0.00 53 1012.4
20180118142955 13 128 1.6 4.8 0.00 0.00 0.00 52 1012.4
20180118142654 13 121 3.2 4.8 0.00 0.00 0.00 52 1012.3
20180118142353 13 121 4.8 4.8 0.00 0.00 0.00 52 1012.4
20180118142052 13 103 3.2 4.8 0.00 0.00 0.00 52 1012.4
20180118141751 13 92 4.8 8.0 0.00 0.00 0.00 52 1012.3
20180118141450 12 90 6.4 8.0 0.00 0.00 0.00 52 1012.2
20180118141149 12 92 4.8 6.4 0.00 0.00 0.00 53 1012.3
20180118140850 12 90 6.4 6.4 0.00 0.00 0.00 52 1012.3
20180118140546 12 92 6.4 8.0 0.00 0.00 0.00 52 1012.2
20180118135944 12 96 6.4 9.7 0.00 0.00 0.00 52 1012.2
20180118135645 12 103 4.8 6.4 0.00 0.00 0.00 52 1012.3
20180118135342 12 90 4.8 6.4 0.00 0.00 0.00 52 1012.2
20180118135042 12 90 3.2 4.8 0.00 0.00 0.00 52 1012.3
20180118134740 12 96 3.2 4.8 0.00 0.00 0.00 51 1012.5
20180118134137 13 155 1.6 1.6 0.00 0.00 0.00 49 1012.4
20180118133838 13 180 0.0 1.6 0.00 0.00 0.00 50 1012.5
20180118133234 13 135 1.6 3.2 0.00 0.00 0.00 49 1012.4
20180118132933 13 135 1.6 4.8 0.00 0.00 0.00 49 1012.2
20180118132633 13 65 3.2 4.8 0.00 0.00 0.00 49 1012.3
20180118132033 13 60 3.2 4.8 0.00 0.00 0.00 49 1012.1
20180118131730 13 70 4.8 6.4 0.00 0.00 0.00 49 1012.1
20180118131429 13 78 4.8 8.0 0.00 0.00 0.00 49 1012.0
20180118131126 13 90 8.0 8.0 0.00 0.00 0.00 49 1012.0
20180118130825 13 108 4.8 6.4 0.00 0.00 0.00 48 1012.0
20180118130524 13 108 3.2 4.8 0.00 0.00 0.00 48 1012.1
20180118130225 13 135 1.6 3.2 0.00 0.00 0.00 48 1012.1
20180118125922 13 45 3.2 3.2 0.00 0.00 0.00 48 1012.1
20180118125621 14 45 1.6 1.6 0.00 0.00 0.00 47 1012.0
20180118125323 14 78 1.6 3.2 0.00 0.00 0.00 47 1012.3
20180118125019 14 180 0.0 3.2 0.00 0.00 0.00 46 1012.2
20180118124718 14 261 0.0 0.0 0.00 0.00 0.00 46 1012.3
20180118124416 15 225 0.0 0.0 0.00 0.00 0.00 46 1012.3
20180118124115 15 173 0.0 1.6 0.00 0.00 0.00 46 1012.4
20180118123817 15 295 0.0 1.6 0.00 0.00 0.00 46 1012.3
20180118123513 15 270 0.0 0.0 0.00 0.00 0.00 45 1012.3
20180118123212 15 315 0.0 0.0 0.00 0.00 0.00 46 1012.4
20180118122911 15 225 0.0 4.8 0.00 0.00 0.00 45 1012.4
20180118122309 15 121 1.6 6.4 0.00 0.00 0.00 45 1012.2
20180118122008 15 96 4.8 6.4 0.00 0.00 0.00 45 1012.2
20180118121706 15 83 4.8 6.4 0.00 0.00 0.00 45 1012.3
20180118121407 16 94 3.2 6.4 0.00 0.00 0.00 45 1012.2
20180118120800 16 90 4.8 4.8 0.00 0.00 0.00 44 1012.1
20180118120458 16 90 1.6 4.8 0.00 0.00 0.00 44 1012.2
20180118120157 16 54 1.6 6.4 0.00 0.00 0.00 44 1012.1
20180118115856 16 94 3.2 8.0 0.00 0.00 0.00 44 1012.1
20180118115554 16 78 3.2 6.4 0.00 0.00 0.00 44 1012.2
20180118115254 16 92 3.2 6.4 0.00 0.00 0.00 44 1012.1
20180118114953 16 96 4.8 6.4 0.00 0.00 0.00 44 1012.3
20180118114650 16 94 4.8 4.8 0.00 0.00 0.00 44 1012.2
20180118114349 16 105 3.2 6.4 0.00 0.00 0.00 44 1012.3
20180118114050 16 92 6.4 6.4 0.00 0.00 0.00 44 1012.2
20180118113747 16 117 1.6 4.8 0.00 0.00 0.00 44 1012.1
20180118113446 16 110 3.2 6.4 0.00 0.00 0.00 43 1012.2
20180118113145 16 148 0.0 6.4 0.00 0.00 0.00 44 1012.3
20180118112844 16 101 3.2 4.8 0.00 0.00 0.00 44 1012.0
20180118112543 16 54 3.2 4.8 0.00 0.00 0.00 44 1012.4
20180118111940 16 74 3.2 4.8 0.00 0.00 0.00 44 1012.5
20180118111639 16 87 4.8 4.8 0.00 0.00 0.00 44 1012.4
20180118111339 16 105 3.2 6.4 0.00 0.00 0.00 43 1012.9
20180118111037 16 90 3.2 8.0 0.00 0.00 0.00 44 1012.6
20180118110736 16 85 4.8 8.0 0.00 0.00 0.00 44 1012.7
20180118110437 16 103 1.6 4.8 0.00 0.00 0.00 44 1012.5
20180118110134 16 99 4.8 4.8 0.00 0.00 0.00 43 1012.6
20180118105833 16 135 1.6 6.4 0.00 0.00 0.00 43 1012.5
20180118105532 16 148 1.6 6.4 0.00 0.00 0.00 43 1012.8
20180118105232 16 54 3.2 6.4 0.00 0.00 0.00 44 1012.7
20180118104931 16 108 4.8 6.4 0.00 0.00 0.00 43 1012.4
20180118104628 16 135 1.6 4.8 0.00 0.00 0.00 43 1012.6
20180118104026 16 85 1.6 3.2 0.00 0.00 0.00 43 1012.8
20180118103727 16 128 1.6 4.8 0.00 0.00 0.00 43 1012.6
20180118103424 16 135 3.2 4.8 0.00 0.00 0.00 43 1012.7
20180118103123 16 112 3.2 8.0 0.00 0.00 0.00 43 1012.7
20180118102822 16 81 3.2 6.4 0.00 0.00 0.00 43 1012.7
20180118102521 16 110 3.2 6.4 0.00 0.00 0.00 42 1012.6
20180118102219 16 123 3.2 6.4 0.00 0.00 0.00 43 1012.7
20180118101918 17 94 6.4 6.4 0.00 0.00 0.00 42 1012.7
20180118101617 17 205 0.0 6.4 0.00 0.00 0.00 43 1013.0
20180118101316 17 96 4.8 6.4 0.00 0.00 0.00 42 1013.0
20180118101017 17 92 1.6 6.4 0.00 0.00 0.00 42 1013.0
20180118100714 17 112 4.8 6.4 0.00 0.00 0.00 42 1012.9
20180118100413 17 76 1.6 9.7 0.00 0.00 0.00 42 1012.8
20180118100112 17 85 6.4 9.7 0.00 0.00 0.00 42 1012.6
20180118095811 17 85 6.4 6.4 0.00 0.00 0.00 42 1012.8
20180118095510 17 70 1.6 6.4 0.00 0.00 0.00 42 1013.1
20180118095208 17 90 4.8 8.0 0.00 0.00 0.00 42 1012.9
20180118094909 17 96 3.2 6.4 0.00 0.00 0.00 42 1012.8
20180118094305 17 85 4.8 6.4 0.00 0.00 0.00 42 1013.0
20180118093703 17 153 1.6 6.4 0.00 0.00 0.00 41 1013.2
20180118093402 17 94 1.6 1.6 0.00 0.00 0.00 41 1013.5
20180118093101 17 213 0.0 4.8 0.00 0.00 0.00 41 1013.4
20180118092759 17 135 3.2 4.8 0.00 0.00 0.00 41 1013.3
20180118092458 17 83 3.2 3.2 0.00 0.00 0.00 41 1013.3
20180118092158 17 114 3.2 4.8 0.00 0.00 0.00 41 1013.3
20180118091856 17 234 1.6 4.8 0.00 0.00 0.00 41 1013.3
20180118091557 17 135 1.6 8.0 0.00 0.00 0.00 41 1013.2
20180118091254 17 85 8.0 8.0 0.00 0.00 0.00 40 1013.2
20180118090953 17 119 3.2 6.4 0.00 0.00 0.00 41 1013.4
20180118090652 17 85 3.2 3.2 0.00 0.00 0.00 40 1013.2
20180118085146 18 146 3.2 4.8 0.00 0.00 0.00 40 1013.2
20180118084846 18 119 3.2 6.4 0.00 0.00 0.00 40 1013.3
20180118084544 18 123 6.4 6.4 0.00 0.00 0.00 40 1013.2
20180118084244 18 139 3.2 6.4 0.00 0.00 0.00 39 1013.1
20180118083943 18 218 0.0 3.2 0.00 0.00 0.00 40 1013.3
20180118083641 18 135 3.2 4.8 0.00 0.00 0.00 39 1013.1
20180118083340 18 153 3.2 4.8 0.00 0.00 0.00 39 1013.2
20180118083040 18 180 3.2 4.8 0.00 0.00 0.00 39 1013.3
20180118082737 18 135 3.2 4.8 0.00 0.00 0.00 39 1013.4
20180118082438 18 130 4.8 4.8 0.00 0.00 0.00 39 1013.4
20180118082135 18 171 1.6 6.4 0.00 0.00 0.00 39 1013.5
20180118081834 18 144 3.2 6.4 0.00 0.00 0.00 39 1013.4
20180118081533 18 188 1.6 6.4 0.00 0.00 0.00 39 1013.4
20180118081233 18 162 1.6 4.8 0.00 0.00 0.00 38 1013.4
20180118080931 18 135 1.6 4.8 0.00 0.00 0.00 38 1013.5
20180118080631 18 180 1.6 3.2 0.00 0.00 0.00 38 1013.4
20180118080330 18 225 1.6 3.2 0.00 0.00 0.00 38 1013.4
20180118080029 19 213 0.0 3.2 0.00 0.00 0.00 38 1013.4
20180118075728 19 135 1.6 1.6 0.00 0.00 0.00 38 1013.4
20180118075426 19 180 3.2 6.4 0.00 0.00 0.00 38 1013.3
20180118074825 19 92 4.8 8.0 0.00 0.00 0.00 38 1013.4
20180118074523 19 123 4.8 8.0 0.00 0.00 0.00 37 1013.4
20180118074231 19 112 6.4 11.3 0.00 0.00 0.00 38 1013.3
20180118073922 19 110 6.4 11.3 0.00 0.00 0.00 37 1013.4
20180118073620 19 121 9.7 11.3 0.00 0.00 0.00 37 1013.3
20180118073322 19 105 6.4 11.3 0.00 0.00 0.00 37 1013.2
20180118073018 20 101 9.7 11.3 0.00 0.00 0.00 37 1013.2
20180118072716 20 119 9.7 9.7 0.00 0.00 0.00 37 1013.3
20180118072415 20 92 8.0 8.0 0.00 0.00 0.00 37 1013.4
20180118072114 20 99 3.2 6.4 0.00 0.00 0.00 37 1013.5
20180118071815 20 162 0.0 8.0 0.00 0.00 0.00 37 1013.5
20180118071512 20 117 1.6 8.0 0.00 0.00 0.00 37 1013.5
20180118071213 20 117 3.2 11.3 0.00 0.00 0.00 36 1013.5
20180118070912 20 150 1.6 11.3 0.00 0.00 0.00 37 1013.6
20180118070307 19 42 6.4 14.5 0.00 0.00 0.00 37 1013.4
20180118070008 19 63 9.7 14.5 0.00 0.00 0.00 37 1013.5
20180118065706 19 59 9.7 9.7 0.00 0.00 0.00 37 1013.5
20180118065405 19 78 4.8 11.3 0.00 0.00 0.00 37 1013.5
20180118065102 19 90 6.4 11.3 0.00 0.00 0.00 37 1013.4
20180118064802 19 85 9.7 9.7 0.00 0.00 0.00 37 1013.6
20180118064501 19 126 1.6 8.0 0.00 0.00 0.00 37 1013.6
20180118063858 20 263 0.0 4.8 0.00 0.00 0.00 36 1013.8
20180118063558 20 166 0.0 8.0 0.00 0.00 0.00 37 1013.7
20180118063257 20 232 1.6 6.4 0.00 0.00 0.00 37 1013.7
20180118062956 20 155 1.6 17.7 0.00 0.00 0.00 38 1013.6
20180118062657 20 69 11.3 17.7 0.00 0.00 0.00 36 1013.7
20180118062355 20 69 12.9 20.9 0.00 0.00 0.00 37 1013.6
20180118062052 20 37 9.7 12.9 0.00 0.00 0.00 37 1013.6
20180118061751 20 255 1.6 12.9 0.00 0.00 0.00 37 1013.7
20180118061451 20 67 8.0 11.3 0.00 0.00 0.00 38 1013.7
20180118061149 20 211 0.0 8.0 0.00 0.00 0.00 37 1013.8
20180118060547 20 276 1.6 8.0 0.00 0.00 0.00 37 1013.9
20180118060246 20 20 4.8 8.0 0.00 0.00 0.00 37 1013.9
20180118055946 20 80 6.4 6.4 0.00 0.00 0.00 36 1014.0
20180118055342 20 51 4.8 16.1 0.00 0.00 0.00 36 1013.9
20180118054740 20 19 11.3 17.7 0.00 0.00 0.00 36 1013.8
20180118054439 20 55 4.8 14.5 0.00 0.00 0.00 36 1013.9
20180118054138 20 65 6.4 20.9 0.00 0.00 0.00 36 1014.0
20180118053837 20 31 8.0 20.9 0.00 0.00 0.00 36 1013.9
20180118053536 20 38 17.7 17.7 0.00 0.00 0.00 36 1013.8
20180118053234 20 9 3.2 17.7 0.00 0.00 0.00 36 1013.9
20180118052631 20 47 12.9 24.1 0.00 0.00 0.00 37 1013.7
20180118052331 20 67 12.9 22.5 0.00 0.00 0.00 38 1013.6
20180118052030 20 37 14.5 22.5 0.00 0.00 0.00 38 1013.6
20180118051730 20 90 1.6 11.3 0.00 0.00 0.00 39 1013.6
20180118051428 20 5 4.8 12.9 0.00 0.00 0.00 39 1013.6
20180118051127 20 15 11.3 11.3 0.00 0.00 0.00 39 1013.6
20180118050826 20 130 3.2 12.9 0.00 0.00 0.00 40 1013.5
20180118050224 20 225 1.6 11.3 0.00 0.00 0.00 40 1013.6
20180118045923 20 126 3.2 19.3 0.00 0.00 0.00 41 1013.5
20180118045622 19 60 9.7 9.7 0.00 0.00 0.00 41 1013.5
20180118045320 19 144 1.6 9.7 0.00 0.00 0.00 42 1013.6
20180118045019 19 4 8.0 17.7 0.00 0.00 0.00 41 1013.6
20180118044718 19 65 9.7 17.7 0.00 0.00 0.00 41 1013.6
20180118044116 19 38 3.2 14.5 0.00 0.00 0.00 42 1013.6
20180118043815 19 128 3.2 16.1 0.00 0.00 0.00 42 1013.7
20180118043514 19 123 1.6 16.1 0.00 0.00 0.00 42 1013.8
20180118043213 19 93 3.2 9.7 0.00 0.00 0.00 43 1013.8
20180118042911 19 132 3.2 11.3 0.00 0.00 0.00 43 1013.7
20180118042609 19 198 1.6 6.4 0.00 0.00 0.00 43 1013.8
20180118042309 18 96 3.2 12.9 0.00 0.00 0.00 43 1013.7
20180118042008 18 56 11.3 19.3 0.00 0.00 0.00 43 1013.6
20180118041707 18 24 14.5 14.5 0.00 0.00 0.00 44 1013.7
20180118041104 18 30 9.7 16.1 0.00 0.00 0.00 44 1013.4
20180118040804 17 22 9.7 17.7 0.00 0.00 0.00 44 1013.5
20180118040503 17 45 11.3 17.7 0.00 0.00 0.00 46 1013.7
20180118040201 17 315 4.8 12.9 0.00 0.00 0.00 49 1013.6
20180118035600 16 54 8.0 9.7 0.00 0.00 0.00 50 1013.6
20180118035258 16 47 1.6 6.4 0.00 0.00 0.00 53 1013.6
20180118034658 16 283 1.6 3.2 0.00 0.00 0.00 56 1013.5
20180118034355 16 225 0.0 3.2 0.00 0.00 0.00 58 1013.3
20180118034054 16 188 0.0 3.2 0.00 0.00 0.00 58 1013.6
20180118033756 16 119 3.2 9.7 0.00 0.00 0.00 59 1013.5
20180118033452 16 51 1.6 3.2 0.00 0.00 0.00 61 1013.4
20180118032851 16 135 3.2 4.8 0.00 0.00 0.00 61 1013.3
20180118032548 16 112 1.6 4.8 0.00 0.00 0.00 60 1013.4
20180118031645 16 105 3.2 6.4 0.00 0.00 0.00 61 1013.5
20180118031344 16 137 1.6 4.8 0.00 0.00 0.00 61 1013.6
20180118031043 16 94 3.2 4.8 0.00 0.00 0.00 61 1013.6
20180118030741 16 96 4.8 4.8 0.00 0.00 0.00 60 1013.6
20180118030441 15 90 1.6 8.0 0.00 0.00 0.00 62 1013.6
20180118030139 15 195 0.0 8.0 0.00 0.00 0.00 63 1013.7
20180118025839 15 36 4.8 12.9 0.00 0.00 0.00 61 1013.7
20180118024935 15 324 1.6 1.6 0.00 0.00 0.00 65 1013.8
20180118024633 15 225 0.0 1.6 0.00 0.00 0.00 65 1013.7
20180118024333 15 220 0.0 3.2 0.00 0.00 0.00 65 1013.9
20180118024032 15 225 0.0 3.2 0.00 0.00 0.00 65 1013.8
20180118023730 15 247 0.0 1.6 0.00 0.00 0.00 64 1013.9
20180118023429 16 339 1.6 1.6 0.00 0.00 0.00 64 1013.8
20180118023128 16 225 0.0 1.6 0.00 0.00 0.00 63 1013.8
20180118022224 16 270 0.0 3.2 0.00 0.00 0.00 64 1013.6
20180118021924 16 270 1.6 3.2 0.00 0.00 0.00 63 1013.5
20180118021621 16 270 0.0 3.2 0.00 0.00 0.00 63 1013.5
20180118021021 16 135 1.6 1.6 0.00 0.00 0.00 61 1013.5
20180118020419 16 225 0.0 1.6 0.00 0.00 0.00 61 1013.5
20180118015815 16 315 1.6 1.6 0.00 0.00 0.00 61 1013.4
20180118014913 17 97 0.0 3.2 0.00 0.00 0.00 59 1013.7
20180118014611 17 225 0.0 1.6 0.00 0.00 0.00 58 1013.6
20180118014010 17 180 0.0 3.2 0.00 0.00 0.00 58 1013.7
20180118013707 17 180 0.0 3.2 0.00 0.00 0.00 57 1013.7
20180118013407 17 222 0.0 3.2 0.00 0.00 0.00 58 1013.7
20180118012805 18 220 0.0 3.2 0.00 0.00 0.00 56 1013.8
20180118012503 18 225 0.0 1.6 0.00 0.00 0.00 56 1013.8
20180118012203 18 222 0.0 1.6 0.00 0.00 0.00 56 1013.8
20180118011901 18 180 1.6 1.6 0.00 0.00 0.00 56 1013.9
20180118011559 18 225 0.0 0.0 0.00 0.00 0.00 55 1013.7
20180118011300 18 225 0.0 4.8 0.00 0.00 0.00 55 1013.7
20180118010957 19 261 3.2 4.8 0.00 0.00 0.00 57 1013.9
20180118010657 19 270 1.6 1.6 0.00 0.00 0.00 55 1013.6
20180118010355 19 236 0.0 1.6 0.00 0.00 0.00 55 1013.7
20180118010055 19 238 1.6 1.6 0.00 0.00 0.00 54 1013.5
20180118005453 20 225 0.0 1.6 0.00 0.00 0.00 54 1013.6
20180118005151 20 225 0.0 1.6 0.00 0.00 0.00 54 1013.7
20180118004850 20 240 1.6 1.6 0.00 0.00 0.00 54 1013.8
20180118004550 20 229 0.0 3.2 0.00 0.00 0.00 54 1013.8
20180118003947 20 247 1.6 6.4 0.00 0.00 0.00 54 1013.8
20180118003646 21 263 4.8 6.4 0.00 0.00 0.00 53 1013.8
20180118003044 21 267 6.4 8.0 0.00 0.00 0.00 52 1013.7
20180118002745 21 263 4.8 6.4 0.00 0.00 0.00 52 1013.5
20180118002442 21 256 4.8 6.4 0.00 0.00 0.00 52 1013.5
20180118002141 21 231 1.6 4.8 0.00 0.00 0.00 51 1013.6
20180118001839 21 263 4.8 4.8 0.00 0.00 0.00 51 1013.6
20180118001238 21 243 4.8 4.8 0.00 0.00 0.00 51 1013.7
20180118000936 21 261 4.8 8.0 0.00 0.00 0.00 50 1013.7
20180118000334 22 263 3.2 8.0 0.00 0.00 0.00 49 1013.8
20180118000033 22 267 4.8 8.0 0.00 0.00 0.00 48 1013.7
20180117235732 22 256 4.8 8.0 0.00 0.00 0.00 48 1013.7
20180117235432 22 263 8.0 12.9 0.00 0.00 0.00 47 1013.7
20180117235129 22 256 4.8 8.0 0.00 0.00 0.00 47 1013.8
20180117234829 23 247 6.4 11.3 0.00 0.00 0.00 46 1013.8
20180117234528 23 267 9.7 11.3 0.00 0.00 0.00 45 1013.8
20180117234227 23 254 4.8 11.3 0.00 0.00 0.00 45 1013.9
20180117233925 23 261 4.8 9.7 0.00 0.00 0.00 44 1013.8
20180117233624 23 236 4.8 9.7 0.00 0.00 0.00 44 1013.8
20180117233323 23 265 6.4 9.7 0.00 0.00 0.00 43 1013.7
20180117232722 24 254 8.0 9.7 0.00 0.00 0.00 42 1013.7
20180117232419 25 263 9.7 11.3 0.00 0.00 0.00 41 1013.6
20180117231817 25 261 6.4 11.3 0.00 0.00 0.00 40 1013.7
20180117231517 26 254 4.8 12.9 0.00 0.00 0.00 40 1013.7
20180117231216 26 267 6.4 12.9 0.00 0.00 0.00 39 1013.7
20180117230915 26 245 6.4 12.9 0.00 0.00 0.00 39 1013.6
20180117230613 26 267 8.0 12.9 0.00 0.00 0.00 38 1013.4
20180117230312 27 267 6.4 6.4 0.00 0.00 0.00 37 1013.5
20180117230011 27 256 6.4 8.0 0.00 0.00 0.00 37 1013.5
20180117225410 27 256 6.4 6.4 0.00 0.00 0.00 37 1013.6
20180117225109 27 256 1.6 4.8 0.00 0.00 0.00 37 1013.5
20180117224806 27 245 1.6 8.0 0.00 0.00 0.00 37 1013.6
20180117224506 27 265 6.4 8.0 0.00 0.00 0.00 36 1013.6
20180117224205 27 238 1.6 8.0 0.00 0.00 0.00 35 1013.6
20180117223903 27 288 8.0 8.0 0.00 0.00 0.00 35 1013.5
20180117223602 27 256 4.8 11.3 0.00 0.00 0.00 35 1013.5
20180117223301 27 256 8.0 11.3 0.00 0.00 0.00 34 1013.5
20180117223000 27 263 6.4 14.5 0.00 0.00 0.00 34 1013.6
20180117222358 28 267 9.7 12.9 0.00 0.00 0.00 30 1014.0
20180117222057 28 60 9.7 9.7 0.00 0.00 0.00 26 1014.0
20180117221755 28 351 3.2 12.9 0.00 0.00 0.00 26 1013.7
20180117221455 28 47 8.0 12.9 0.00 0.00 0.00 26 1013.7
20180117221153 28 0 6.4 9.7 0.00 0.00 0.00 26 1013.6
20180117220853 28 339 8.0 14.5 0.00 0.00 0.00 25 1013.7
20180117220551 28 22 9.7 17.7 0.00 0.00 0.00 25 1013.6
20180117220250 28 350 4.8 6.4 0.00 0.00 0.00 26 1013.7
20180117215948 28 33 6.4 16.1 0.00 0.00 0.00 25 1013.7
20180117215649 28 20 16.1 19.3 0.00 0.00 0.00 25 1013.7
20180117215348 28 31 9.7 20.9 0.00 0.00 0.00 25 1013.6
20180117214745 28 78 9.7 17.7 0.00 0.00 0.00 26 1013.8
20180117214443 28 56 11.3 16.1 0.00 0.00 0.00 26 1013.8
20180117214143 28 356 4.8 16.1 0.00 0.00 0.00 27 1013.9
20180117213841 28 103 6.4 11.3 0.00 0.00 0.00 27 1013.9
20180117213540 28 87 8.0 11.3 0.00 0.00 0.00 27 1013.7
20180117213239 28 177 1.6 11.3 0.00 0.00 0.00 27 1013.8
20180117212938 28 119 8.0 8.0 0.00 0.00 0.00 28 1013.8
20180117212637 28 27 1.6 16.1 0.00 0.00 0.00 27 1013.8
20180117212336 27 83 11.3 11.3 0.00 0.00 0.00 28 1013.8
20180117212036 27 150 1.6 14.5 0.00 0.00 0.00 28 1013.9
20180117211734 27 324 8.0 19.3 0.00 0.00 0.00 27 1013.9
20180117211433 27 40 9.7 19.3 0.00 0.00 0.00 27 1014.0
20180117211131 27 81 4.8 12.9 0.00 0.00 0.00 29 1014.0
20180117210830 27 0 4.8 9.7 0.00 0.00 0.00 28 1014.1
20180117210531 27 324 3.2 16.1 0.00 0.00 0.00 28 1014.2
20180117210228 27 15 11.3 16.1 0.00 0.00 0.00 27 1014.3
20180117205927 27 49 14.5 16.1 0.00 0.00 0.00 28 1014.3
20180117205320 26 50 6.4 12.9 0.00 0.00 0.00 29 1014.4
20180117205019 26 80 4.8 16.1 0.00 0.00 0.00 29 1014.4
20180117204718 26 67 14.5 16.1 0.00 0.00 0.00 28 1014.5
20180117204416 26 72 9.7 17.7 0.00 0.00 0.00 28 1014.5
20180117203814 26 45 16.1 24.1 0.00 0.00 0.00 28 1014.6
20180117203513 26 60 17.7 20.9 0.00 0.00 0.00 28 1014.7
20180117203212 26 33 14.5 19.3 0.00 0.00 0.00 29 1014.7
20180117202911 26 30 9.7 11.3 0.00 0.00 0.00 29 1014.8
20180117202610 26 205 0.0 9.7 0.00 0.00 0.00 30 1014.8
20180117202309 26 180 0.0 16.1 0.00 0.00 0.00 30 1014.7
20180117202008 26 81 12.9 22.5 0.00 0.00 0.00 30 1014.9
20180117201707 26 87 22.5 22.5 0.00 0.00 0.00 29 1014.7
20180117201405 25 72 8.0 19.3 0.00 0.00 0.00 30 1014.8
20180117200501 25 5 1.6 20.9 0.00 0.00 0.00 31 1015.1